Regional Weather Roundup
Issued by NWS Sioux Falls, SD

Home | Current Version | Previous Version | Graphics & Text | Print | Product List | Glossary Off
Versions: 1 2 3 4 5 6 7 8 9 10 11 12 13 14 15 16 17 18 19 20 21 22 23 24 25 26 27 28 29 30 31 32 33 34 35 36 37 38 39 40 41 42 43 44 45 46 47 48 49 50

000
ASUS43 KFSD 230210
RWRFSD

WEATHER ROUNDUP FOR SE SOUTH DAKOTA/SW MINNESOTA/NW IOWA
NATIONAL WEATHER SERVICE SIOUX FALLS SD
800 PM CST MON DEC 22 2014

NOTE: "FAIR" INDICATES FEW OR NO CLOUDS BELOW 12,000 FEET WITH NO
SIGNIFICANT WEATHER AND OR OBSTRUCTIONS TO VISIBILITY.


SDZ038>040-050-052>070-230300-
SOUTHEAST SOUTH DAKOTA

CITY           SKY/WX    TMP DP  RH WIND       PRES   REMARKS
CHAMBERLAIN    CLOUDY    31  29  93 NW20      29.52R WCI  19
HURON          FOG       32  32 100 NW5       29.49R VSB 1   WCI  27
MADISON        FOG       32  32 100 N6        29.46R VSB 1   WCI  26
MITCHELL         N/A     34  32  92 NW8       29.50R WCI  27
SIOUX FALLS    LGT RAIN  36  35  96 NE3       29.46R FOG
WINNER         LGT SNOW  31  27  85 NW24G31   29.54S FOG     WCI  17
YANKTON        CLOUDY    36  34  93 NW13      29.48R
$$

MNZ071-072-080-081-089-090-097-098-230300-
SOUTHWEST MINNESOTA

CITY           SKY/WX    TMP DP  RH WIND       PRES   REMARKS
FAIRMONT       CLOUDY    36  30  80 E9        29.52R
JACKSON        MIX PCPN  34  32  93 E8        29.51R WCI  27
LUVERNE        LGT RAIN  37  36  93 E12       29.48R
MARSHALL       CLOUDY    34  30  86 E12       29.53R WCI  25
MONTEVIDEO     DRIZZLE   34  34 100 SE10      29.57R WCI  26
PIPESTONE      CLOUDY    36  36 100 SE9       29.47R FOG
REDWOOD FALLS  LGT RAIN  35  34  96 E9        29.55R FOG     WCI  28
TRACY          LGT RAIN  34  33  97 E9        29.52R WCI  27
WINDOM         LGT SNOW  34  34 100 E7        29.51S WCI  28
WORTHINGTON    CLOUDY    34 -15  12 E12       29.49S WCI  25
$$

IAZ001>003-012>014-020>022-031-032-NEZ013-014-SDZ071-230300-
NORTHWEST IOWA

CITY           SKY/WX    TMP DP  RH WIND       PRES   REMARKS
CHEROKEE       LGT RAIN  37  37 100 E9        29.46S
DENISON        MIX PCPN  39  39 100 E7        29.42S
ESTHERVILLE    MIX PCPN  33  33 100 E12       29.50R FOG     WCI  24
LE MARS          N/A     39  39 100 E9        29.45S
ORANGE CITY    LGT RAIN  39  37  93 E7        29.45S
SHELDON        CLOUDY    36  36 100 E13       29.46R FOG
SIOUX CITY     LGT RAIN  38  36  92 NW12      29.45R
SPENCER        LGT RAIN  36  33  89 E10       29.48R
STORM LAKE     CLOUDY    36  36 100 E13       29.46S FOG
$$

ABBREVIATIONS USED IN REMARKS
   TC - TEMPERATURE IN CELSIUS
  WCI - WIND CHILL INDEX
   HX - HEAT INDEX
  VSB - VISIBILITY



USA.gov is the U.S. government's official web portal to all federal, state and local government web resources and services.